Regional Weather Roundup
Issued by NWS

Home | Current Version | Previous Version | Graphics & Text | Print | Product List | Glossary On
Versions: 1 2 3 4 5 6 7 8 9 10 11 12 13 14 15 16 17 18 19 20 21 22 23 24 25 26 27 28 29 30 31 32 33 34 35 36 37 38 39 40 41 42 43 44 45 46 47
000
ASUS45 KBOU 230907
RWRCO

WEATHER ROUNDUP FOR COLORADO
NATIONAL WEATHER SERVICE DENVER/BOULDER CO
300 AM MDT WED JUL 23 2014

NOTE: "FAIR" INDICATES FEW OR NO CLOUDS BELOW 12000 FEET WITH NO
SIGNIFICANT WEATHER AND/OR OBSTRUCTIONS TO VISIBILITY.

COZ001>005-013-030-031-231000-
...NORTHWEST COLORADO...

CITY           SKY/WX    TMP DP  RH WIND       PRES   REMARKS
CRAIG          CLEAR     44  36  73 CALM      30.33F
HAYDEN         CLEAR     61  34  36 E13       30.36F
MEEKER         CLEAR     54  31  41 NE5       30.35S
MOUNT WERNER   NOT AVBL
STEAMBOAT SPGS CLEAR     56  36  48 CALM      30.42S
WALDEN         CLEAR     50  37  62 SE5       30.52F
$$

COZ006>008-011-231000-
...WEST CENTRAL VALLEYS...

CITY           SKY/WX    TMP DP  RH WIND       PRES   REMARKS
GRAND JUNCTION PTCLDY    78  27  15 E15       30.20R
MONTROSE       CLEAR     73  40  30 S3        30.33R
EAGLE          CLEAR     61  37  41 CALM      30.43S
RIFLE          CLEAR     62  29  28 SE5       30.29R
DELTA          CLEAR     72  33  23 CALM      30.28R
NUCLA          CLEAR     73  32  21 E8        30.38R
$$

COZ017>023-064>068-231000-
...SOUTHWEST COLORADO...

CITY           SKY/WX    TMP DP  RH WIND       PRES   REMARKS
DURANGO        CLOUDY    65  52  62 E10       30.45F
CORTEZ         CLEAR     78  43  28 NW7G18    30.37R
PAGOSA SPRINGS CLOUDY    63  42  45 NE5       30.57S
TELLURIDE      PTCLDY    64  39  39 SE9G16    30.64R
WOLF CREEK PAS NOT AVBL
$$

COZ009-010-012-014-032>034-037-058>063-231000-
...CENTRAL COLORADO...

CITY           SKY/WX    TMP DP  RH WIND       PRES   REMARKS
ASPEN          CLEAR     71  39  31 SE14      30.49F
BUENA VISTA    CLEAR     53  45  73 CALM      30.58F
COPPER MTN     CLEAR     59  36  41 S26       30.87S
BERTHOUD PASS  FAIR      46  34  61 SW13      30.92F
COTTONWOOD PAS CLEAR     61  37  41 W8        30.71F
GUNNISON       CLEAR     57  39  51 N8        30.57S
KREMMLING      CLEAR     54  37  54 CALM      30.51S
LEADVILLE      CLEAR     49  37  63 CALM      30.72F
MONARCH PASS   PTCLDY    54  37  54 S23       30.97F
SALIDA         CLEAR    N/A N/A N/A N6        30.62S
SUNLIGHT       CLEAR     61  36  39 SE6       30.75S
WILKERSON PASS MOCLDY    50  37  62 W7        30.85F
$$

COZ069>075-231000-
...SAN LUIS VALLEY/SANGRE DE CRISTO MOUNTAINS...

CITY           SKY/WX    TMP DP  RH WIND       PRES   REMARKS
ALAMOSA        PTCLDY    56  45  66 E3        30.53F
LA VETA PASS   CLEAR     59  41  51 CALM      30.75S
SAGUACHE       CLEAR     63  43  48 NW7       30.57S
$$

COZ035-036-038>040-231000-
...NORTHERN COLORADO FRONT RANGE...

CITY           SKY/WX    TMP DP  RH WIND       PRES   REMARKS
DENVER INTL AP PTCLDY    71  46  40 SW12      30.32F
DMNS CITY PARK   N/A     68  47  47 CALM      30.32S
AURORA         NOT AVBL
FRONT RANGE AP NOT AVBL
ERIE MUNI ARPT CLEAR     67  59  74 NW3       30.31F
BOULDER MUN AP CLEAR     72  55  56 CALM      30.32F
CENTENNIAL     CLEAR     68  42  38 S9        30.36F
BROOMFIELD     CLEAR     72  55  56 NW12      30.34F
FORT COLLINS   CLEAR     66  61  82 N6        30.33S
LONGMONT       CLEAR     73  60  65 N7        30.33S
$$

COZ041-046-047-076>085-087-088-231000-
...PIKES PEAK/PALMER DIVIDE AND SOUTHERN FOOTHILLS...

CITY           SKY/WX    TMP DP  RH WIND       PRES   REMARKS
COLO. SPRINGS  PTCLDY    67  51  56 NE5       30.41F
A. F. ACADEMY  NOT AVBL
ELLICOTT       PTCLDY    66  53  63 E6        30.40S
FALCON         PTCLDY    62  50  65 CALM      30.47F
FORT CARSON    PTCLDY    66  52  59 NW9       30.37F
LIMON          CLEAR     63  57  81 S3        30.35F
MONUMENT HILL  CLEAR     57  45  62 SW7       30.47S
TRINIDAD       CLEAR     68  48  48 W12       30.37S
$$

COZ042>045-048>051-090-091-231000-
...NORTHEAST COLORADO...

CITY           SKY/WX    TMP DP  RH WIND       PRES   REMARKS
GREELEY ARPT   CLEAR     66  59  77 E5        30.29S
AKRON          PTCLDY    67  62  84 SE15      30.30F
BURLINGTON     CLEAR     67  65  93 E6        30.27F FOG
WRAY             N/A     70  65  82 E10       30.29R
STERLING       MOCLDY    73  68  83 SE13      30.28F
HOLYOKE        CLOUDY    72  64  78 E12       30.30F
FORT MORGAN    PTCLDY    66  61  84 E7        30.29F
$$

COZ086-089-092>099-231000-
...SOUTHEAST COLORADO...

CITY           SKY/WX    TMP DP  RH WIND       PRES   REMARKS
PUEBLO         MOCLDY    73  51  46 E5        30.28S
LA JUNTA       CLEAR     72  60  66 N3        30.26R
LAMAR          CLEAR     69  62  78 E3        30.21F
SPRINGFIELD      N/A     65  61  87 SW3       30.28F
$$


USA.gov is the U.S. government's official web portal to all federal, state and local government web resources and services.